This demonstration page uses our WeatherBlox Daily Observations layout. Learn more.

Hourly Observations for December 31, 2017

Temp ( °F °C ) Dew Point ( °F °C ) Humidity (%) Winds ( mph kmh ) Pressure ( in mb ) Visibility ( mi km ) Precip ( " mm )
12:54 am 00:54 Cloudy 0 -17.8 -7 -21.7 72 72 NNE 15 24 30.66 1038 10 16.0934 0 0
1:54 am 01:54 Mostly Cloudy -1 -18.3 -7 -21.7 75 75 NNE 12 19 30.69 1039 10 16.0934 0 0
2:54 am 02:54 Mostly Clear -1 -18.3 -8 -22.2 72 72 N 14 22 30.74 1041 10 16.0934 0 0
3:54 am 03:54 Clear -2 -18.9 -9 -22.8 72 72 N 14 22 30.74 1041 10 16.0934 0 0
4:54 am 04:54 Clear -6 -21.1 -11 -23.9 78 78 N 9 15 30.76 1042 10 16.0934 0 0
5:54 am 05:54 Cloudy -5 -20.6 -12 -24.4 72 72 N 13 20 30.78 1042 10 16.0934 0 0
6:54 am 06:54 Cloudy -5 -20.6 -11 -23.9 75 75 N 12 19 30.81 1043 10 16.0934 0 0
7:54 am 07:54 Cloudy -4 -20 -11 -23.9 71 71 N 12 19 30.84 1044 10 16.0934 0 0
8:54 am 08:54 Cloudy -3 -19.4 -10 -23.3 71 71 N 12 19 30.87 1045 10 16.0934 0 0
9:54 am 09:54 Mostly Cloudy -2 -18.9 -10 -23.3 68 68 N 14 22 30.9 1046 10 16.0934 0 0
10:54 am 10:54 Sunny -1 -18.3 -10 -23.3 65 65 NNW 12 19 30.91 1047 10 16.0934 0 0
11:54 am 11:54 Sunny -1 -18.3 -10 -23.3 65 65 N 14 22 30.91 1047 10 16.0934 0 0
12:54 pm 12:54 Sunny 0 -17.8 -10 -23.3 62 62 N 13 20 30.91 1047 10 16.0934 0 0
1:54 pm 13:54 Sunny 0 -17.8 -10 -23.3 62 62 N 14 22 30.9 1046 10 16.0934 0 0
2:54 pm 14:54 Mostly Sunny 0 -17.8 -10 -23.3 62 62 NNW 12 19 30.91 1047 10 16.0934 0 0
3:54 pm 15:54 Cloudy -2 -18.9 -11 -23.9 65 65 N 14 22 30.91 1047 10 16.0934 0 0
4:54 pm 16:54 Cloudy -3 -19.4 -12 -24.4 65 65 N 13 20 30.93 1047 10 16.0934 0 0
5:54 pm 17:54 Clear -6 -21.1 -14 -25.6 67 67 N 9 15 30.94 1048 10 16.0934 0 0
6:54 pm 18:54 Clear -9 -22.8 -16 -26.7 71 71 NNE 6 9 30.95 1048 10 16.0934 0 0
7:54 pm 19:54 Cloudy -6 -21.1 -15 -26.1 64 64 N 5 7 30.97 1049 10 16.0934 0 0
8:54 pm 20:54 Cloudy -5 -20.6 -14 -25.6 64 64 N 9 15 30.97 1049 10 16.0934 0 0
9:54 pm 21:54 Clear -9 -22.8 -16 -26.7 71 71 NNE 5 7 30.97 1049 10 16.0934 0 0
10:54 pm 22:54 Clear -10 -23.3 -17 -27.2 70 70 N 6 9 30.98 1049 10 16.0934 0 0
11:54 pm 23:54 Clear -9 -22.8 -17 -27.2 67 67 Calm 31 1050 10 16.0934 0 0

Powered by AerisWeather